Temperature
18 18 18 18 18 18 18 18 18 18 18 18 18 18 18 18 18 18 18 18 18 18 18 18 18 18 18 18 18 18 18 18 18 18 18 18 18 18 17 17 17 18 18
18 19 18 18 18 18 18 18 18 18 18 18 18 18 18 18 18 18 18 18 18 18 18 18 18 18 18 18 18 18 18 18 18 18 18 18 18 17 17 17 17 17 17
18 18 18 18 18 18 18 18 18 18 18 18 18 18 18 18 18 18 18 18 18 18 18 18 18 18 18 18 18 18 18 18 17 17 17 17 17 17 17 17 17 17 17
18 18 18 18 18 18 18 18 18 18 18 18 18 18 18 18 18 18 18 18 18 18 18 18 18 18 18 18 18 18 18 18 17 17 17 17 17 17 17 17 17 17 17
19 19 19 18 18 18 18 18 18 18 18 18 18 18 18 18 18 18 18 18 18 18 18 18 18 18 18 18 18 18 18 18 17 17 17 17 17 17 17 17 17 17 17
19 19 19 19 18 18 18 18 18 18 18 18 18 18 18 18 18 18 18 18 18 18 18 18 18 18 18 18 18 18 18 18 18 17 17 17 17 17 17 17 17 17 17
19 19 19 19 18 18 18 18 18 18 18 18 18 18 18 18 18 18 18 18 18 18 18 18 18 18 18 18 18 18 18 18 18 17 17 18 18 17 17 17 17 17 17
19 19 19 19 19 19 18 18 18 18 18 18 18 18 18 18 18 18 18 18 18 18 18 18 18 18 18 18 18 18 18 18 18 18 18 18 18 18 17 17 17 17 17
20 19 19 19 19 19 18 18 18 18 18 18 18 18 18 18 18 18 18 18 18 18 18 18 18 18 18 18 18 18 18 18 18 18 18 18 18 18 17 17 17 17 17
20 19 19 18 18 18 19 18 18 18 18 18 18 18 18 18 18 18 18 18 18 18 18 18 18 18 18 18 18 19 19 18 18 18 18 18 18 18 17 17 17 17 17
20 19 19 19 19 18 18 18 18 18 18 18 18 18 18 18 18 18 18 18 18 18 18 18 18 18 18 18 18 19 19 19 18 18 18 18 18 18 18 17 17 17 17
20 20 19 19 19 19 19 18 18 18 18 18 18 18 18 18 18 18 18 18 18 18 18 18 18 18 18 18 18 19 19 19 18 18 18 18 18 18 18 17 17 17 17
20 20 19 19 19 19 19 19 18 18 18 18 18 18 18 18 18 18 18 18 18 18 18 18 18 18 18 18 19 19 19 19 18 18 18 18 18 18 18 17 17 17 17
20 20 20 19 19 19 19 19 19 19 18 18 18 18 18 18 18 18 18 18 18 18 18 18 18 18 18 18 19 19 19 19 18 18 18 18 18 18 18 17 17 17 17
20 20 20 19 19 19 19 19 19 19 19 19 18 18 18 18 18 18 18 18 18 18 18 18 18 18 18 18 18 19 19 19 18 18 18 18 18 18 18 17 17 17 17
21 20 20 19 19 19 19 19 19 19 19 19 19 18 18 18 18 18 18 18 18 18 18 18 18 18 18 18 18 18 18 18 18 18 18 18 18 18 17 17 17 17 17
21 20 20 19 19 19 19 19 19 19 19 19 19 18 18 18 18 18 18 18 18 18 18 18 18 18 18 18 18 18 18 18 18 18 18 17 17 17 17 17 17 17 17
21 20 20 20 19 19 19 19 19 19 19 19 19 19 18 18 18 18 18 18 18 18 18 18 18 18 18 18 18 18 18 18 18 18 17 17 17 17 17 17 17 17 17
21 20 20 20 19 19 19 19 19 19 19 19 19 19 18 18 18 18 18 18 18 18 18 18 18 18 18 18 18 18 18 18 18 18 17 17 17 17 17 17 17 17 17
21 20 20 20 19 19 19 19 19 19 19 19 19 19 19 18 18 18 18 18 18 18 18 18 18 18 18 18 18 18 18 18 18 17 17 17 17 17 17 17 17 16 16
21 20 20 20 19 19 19 19 19 19 19 19 19 19 18 18 18 18 18 18 18 18 18 18 18 18 18 18 18 18 18 17 17 17 17 17 17 17 17 16 16 16 16
21 20 20 20 20 20 19 19 19 19 19 19 19 19 19 18 18 18 18 18 18 18 18 18 18 18 18 18 18 18 17 17 17 17 17 17 17 17 17 16 16 16 16
21 21 20 20 20 20 20 19 19 19 19 19 19 19 19 18 18 18 18 18 18 18 18 18 18 18 18 18 18 18 17 17 17 17 17 17 17 17 17 16 16 16 16
22 21 21 20 20 20 20 20 19 19 19 19 19 19 19 19 19 18 18 18 18 18 18 18 18 18 18 18 18 18 18 18 17 17 17 17 17 16 16 16 16 16 16
22 21 21 21 21 20 20 20 19 19 19 19 19 19 19 19 19 18 18 18 18 18 18 18 18 18 18 18 18 18 18 18 17 17 16 16 16 16 16 16 16 15 15
23 22 21 21 21 21 20 20 20 19 19 19 19 19 19 18 18 18 18 18 18 18 18 18 18 18 18 18 18 18 18 17 17 17 17 16 16 16 16 15 15 15 15
Wind_Speed
11 13 14 14 15 16 16 17 17 17 17 17 18 18 18 19 19 19 19 19 19 18 18 19 18 19 19 19 19 19 19 19 19 19 18 17 16 15 14 14 15 16 17
14 15 15 15 16 16 17 17 16 16 17 17 17 17 18 18 19 19 19 18 18 18 18 18 18 18 18 18 18 17 17 17 17 18 18 16 15 14 13 13 15 15 16
15 15 15 15 16 16 16 17 16 17 17 17 16 17 17 18 18 18 18 18 18 18 18 18 18 18 17 17 16 15 14 14 14 15 16 14 14 14 16 17 17 16 15
15 15 15 15 15 16 16 16 16 16 17 16 16 17 17 18 18 17 17 18 17 18 17 17 17 17 16 15 14 12 11 11 10 9 9 12 14 15 15 15 15 14 14
16 16 15 15 16 16 16 16 15 16 16 15 16 17 17 17 17 17 16 16 17 16 16 16 16 15 14 13 11 9 7 6 5 6 11 14 15 14 14 13 13 13 13
16 17 16 15 15 16 16 15 15 15 15 15 15 16 16 16 16 16 16 15 15 15 15 15 14 13 12 10 8 6 4 2 1 7 12 15 14 13 12 12 12 12 12
16 16 15 15 15 15 15 15 15 15 15 15 15 15 15 15 15 15 15 14 14 13 13 13 13 11 9 8 5 3 0 1 2 8 13 15 13 12 11 11 11 11 11
15 15 15 15 15 14 14 14 14 14 14 14 14 14 14 14 14 14 13 13 12 12 12 11 11 9 7 5 3 0 2 4 5 10 14 14 13 12 11 10 10 10 10
13 13 13 13 13 13 13 13 13 13 13 12 12 12 12 12 12 12 12 11 11 10 10 9 8 8 6 4 1 2 3 4 3 8 13 13 13 12 11 10 9 9 9
11 11 10 11 12 13 13 12 12 12 11 10 10 10 10 10 10 10 10 9 9 8 7 7 6 6 4 3 3 3 4 5 3 9 12 13 14 12 10 9 9 9 8
10 8 9 9 9 10 12 12 11 10 9 9 8 8 8 7 8 8 9 9 7 7 6 6 6 5 4 5 6 5 5 3 6 10 11 15 14 12 10 9 8 8 7
8 8 7 7 6 8 9 9 9 8 8 6 6 6 5 4 5 8 9 8 6 6 6 7 7 6 7 6 7 7 4 2 6 10 12 15 13 12 10 9 8 7 7
7 8 8 5 4 5 5 6 5 6 6 6 5 5 4 4 5 7 6 6 6 7 6 6 6 6 6 5 5 6 4 3 6 9 12 14 13 11 9 8 7 7 6
7 8 8 6 4 4 4 3 4 4 4 5 4 4 4 2 2 3 2 4 5 4 3 2 2 2 0 0 1 2 2 4 7 10 12 13 12 11 9 8 7 7 7
7 8 7 6 5 4 3 1 2 3 4 5 4 3 3 2 1 2 1 1 1 2 3 0 1 2 1 2 2 2 2 4 8 10 11 13 12 11 9 8 7 7 7
7 8 7 7 6 3 1 1 1 3 3 4 4 4 2 2 2 1 0 1 1 1 2 1 0 1 1 1 1 2 3 3 5 8 10 11 11 11 10 9 8 7 7
8 8 7 6 6 4 2 1 1 1 3 3 4 4 2 2 2 0 0 0 1 1 1 1 0 0 1 1 0 1 2 2 2 5 8 9 10 10 10 9 8 8 7
8 7 5 5 7 5 2 1 1 1 2 2 3 4 3 2 1 0 0 0 1 1 1 0 0 1 0 0 1 1 1 2 1 2 4 8 9 8 9 9 8 7 7
8 6 5 4 5 5 3 2 1 1 0 1 2 2 3 3 3 2 1 1 1 1 1 1 1 0 0 0 1 1 1 1 1 1 1 2 5 7 8 9 8 6 5
8 7 5 4 4 4 3 2 1 1 1 1 1 1 2 2 2 2 2 1 1 0 1 1 1 1 1 1 2 0 0 1 1 1 1 2 3 5 6 7 8 5 4
9 8 7 6 4 3 3 2 2 2 2 1 2 2 1 2 1 2 1 1 1 1 1 1 0 1 1 0 0 1 0 1 1 1 1 1 2 3 5 6 6 5 5
10 9 7 6 6 4 3 2 2 2 2 2 1 3 2 2 1 2 1 1 1 1 1 1 1 1 2 1 1 0 0 0 1 1 2 2 1 3 3 5 6 6 5
11 10 8 7 6 5 4 3 2 2 1 1 1 2 2 2 1 1 1 1 1 1 2 2 2 2 2 2 2 1 1 1 0 0 1 1 2 1 2 4 5 6 5
12 11 8 7 6 6 5 4 4 3 2 2 1 2 1 2 2 2 1 1 1 1 1 2 2 3 2 3 2 1 1 1 1 1 0 1 2 2 1 2 4 6 6
12 12 10 8 7 6 5 4 4 3 2 1 1 1 2 2 2 2 1 1 1 1 1 2 1 2 2 2 2 1 1 2 2 2 1 1 1 1 1 2 3 5 6
12 11 11 9 7 7 6 5 4 3 3 2 1 1 2 1 1 2 1 0 1 1 1 1 2 2 2 2 2 2 1 1 1 1 2 2 1 0 1 2 2 4 6
Wind_Direction
82 80 74 72 73 74 74 77 79 79 79 81 83 86 89 91 93 95 96 97 97 97 97 97 96 96 96 96 97 99 100 101 102 102 101 99 98 99 102 109 106 102 106
91 85 78 75 77 78 77 77 79 80 80 82 84 87 90 92 93 94 96 96 96 97 97 97 97 97 97 99 100 103 105 108 111 111 109 103 99 97 96 98 99 108 109
95 92 83 78 81 81 79 78 79 81 81 82 83 88 92 94 94 94 95 95 96 97 98 98 98 98 99 101 103 107 111 116 121 125 120 108 101 95 95 98 104 110 111
97 91 86 84 84 84 83 82 81 84 83 83 83 88 90 93 93 94 95 96 97 97 98 98 99 99 100 104 108 111 116 120 129 137 122 108 103 98 100 105 110 112 114
97 94 91 89 87 86 84 84 84 87 86 86 85 87 89 92 93 96 97 97 98 98 98 99 100 101 103 106 111 115 118 124 134 130 104 98 99 107 108 110 115 117 117
100 98 96 92 90 89 87 86 85 88 87 86 86 89 91 93 95 97 99 99 98 98 99 101 103 103 104 106 109 113 116 117 102 112 110 105 105 111 112 115 118 120 118
103 104 103 99 95 93 91 90 87 86 88 88 88 91 93 95 97 99 100 102 101 101 102 102 104 105 108 110 112 111 77 311 135 104 102 104 112 118 117 121 122 123 123
106 109 112 109 104 100 96 95 94 91 91 92 92 93 96 99 100 102 102 104 104 105 105 107 108 110 114 116 118 39 321 317 113 111 109 110 121 121 120 125 126 129 127
105 111 117 119 116 110 105 103 101 100 99 98 99 100 101 102 105 105 107 107 107 108 111 113 116 118 123 131 165 279 313 338 59 112 112 115 126 125 126 128 131 134 132
105 111 117 120 128 126 117 115 113 111 110 110 112 115 116 117 117 118 115 115 117 119 124 128 130 135 150 179 231 274 305 319 136 104 108 122 129 127 127 128 127 130 132
100 108 116 119 133 129 122 127 131 128 128 130 134 138 140 141 137 137 119 125 132 142 152 157 159 168 194 213 231 253 283 260 108 102 106 126 131 129 131 132 132 135 139
110 111 104 108 120 119 114 133 142 131 142 149 140 154 169 140 120 117 128 144 156 170 183 193 191 198 218 218 219 225 247 190 108 109 120 133 133 133 136 139 140 144 149
118 110 108 100 86 95 113 135 133 126 141 138 141 154 143 129 126 128 147 164 183 192 201 193 200 212 215 212 197 194 198 125 102 111 129 137 139 141 144 151 157 163 168
123 114 109 107 83 67 89 112 135 131 140 134 144 146 131 123 131 129 146 176 187 188 194 199 199 185 255 347 108 115 116 111 114 117 134 143 147 151 154 164 171 179 188
125 120 114 110 90 72 64 33 112 113 122 124 130 114 114 115 88 79 48 312 220 156 147 106 53 80 23 6 32 63 64 97 116 126 138 150 154 159 163 170 181 193 198
137 129 126 125 115 103 87 12 49 104 120 126 121 105 78 94 92 77 30 328 337 43 94 110 74 74 34 41 26 52 50 60 111 130 142 159 164 167 170 175 182 192 200
140 128 131 136 130 137 146 214 131 135 122 109 110 115 100 79 96 114 186 236 359 346 92 126 8 263 204 156 159 99 84 76 109 137 153 163 170 177 178 180 185 193 199
137 135 153 146 136 144 156 246 332 66 88 117 129 127 141 126 142 240 273 117 286 268 172 147 235 279 36 126 165 196 156 129 146 153 156 167 169 175 182 187 188 196 203
140 142 148 134 141 151 159 193 218 136 151 175 134 147 172 173 177 197 215 108 273 313 333 277 124 181 152 320 237 203 209 144 163 146 120 141 152 150 157 171 179 181 186
148 149 149 149 145 158 165 186 213 199 211 200 146 167 169 182 180 204 214 200 233 299 319 356 16 349 255 241 276 10 45 163 138 126 142 113 124 134 137 149 164 164 160
155 155 161 168 161 174 181 193 185 198 211 189 176 159 166 222 184 197 291 190 236 198 227 237 241 298 271 236 291 323 338 34 122 132 107 99 103 106 118 125 136 143 145
161 162 166 170 172 185 189 205 195 202 208 190 181 144 185 217 227 207 211 250 223 188 206 247 211 236 265 229 199 219 272 301 344 150 146 162 121 97 106 119 129 133 137
169 171 179 177 172 184 188 197 214 202 248 190 162 157 197 216 210 298 168 263 283 218 210 220 234 239 246 261 235 201 217 220 142 34 63 104 126 120 117 117 113 115 120
173 173 172 170 172 179 188 204 211 211 213 228 197 173 202 227 227 210 215 224 253 262 243 242 222 250 238 256 263 235 222 212 195 194 336 129 136 130 124 117 107 107 109
177 173 172 168 172 176 191 208 223 228 220 224 204 177 213 219 227 233 198 211 240 261 249 267 276 264 259 267 270 260 249 235 226 189 210 206 111 121 152 118 101 106 113
178 173 170 168 173 177 186 200 207 225 243 248 240 196 218 226 249 280 214 152 275 290 282 279 279 266 274 290 299 297 268 250 241 204 205 208 183 126 78 89 107 111 114
Height
1521 1519 1517 1516 1515 1515 1514 1514 1514 1514 1515 1515 1515 1516 1516 1518 1519 1520 1521 1523 1524 1525 1527 1528 1530 1531 1532 1534 1536 1537 1539 1541 1542 1544 1545 1546 1548 1549 1550 1552 1553 1553 1554
1523 1522 1520 1519 1519 1519 1518 1518 1518 1518 1518 1518 1519 1519 1520 1521 1522 1523 1524 1526 1527 1529 1530 1531 1533 1534 1535 1537 1538 1540 1542 1543 1545 1546 1548 1549 1550 1551 1552 1553 1554 1555 1556
1525 1524 1523 1523 1522 1522 1522 1521 1522 1522 1522 1523 1523 1523 1524 1525 1526 1527 1528 1529 1531 1532 1533 1535 1536 1537 1538 1540 1541 1543 1544 1546 1547 1549 1550 1551 1552 1553 1554 1555 1556 1557 1558
1528 1527 1526 1526 1526 1525 1525 1525 1526 1526 1526 1526 1526 1526 1527 1527 1529 1530 1532 1533 1534 1535 1536 1538 1539 1540 1541 1542 1544 1546 1547 1549 1550 1551 1553 1554 1554 1555 1556 1557 1558 1559 1559
1530 1529 1529 1529 1529 1529 1529 1529 1529 1529 1530 1530 1530 1530 1531 1532 1533 1534 1535 1536 1537 1538 1540 1541 1542 1543 1544 1546 1547 1548 1550 1551 1552 1554 1555 1555 1556 1557 1558 1558 1559 1560 1561
1533 1532 1532 1532 1532 1532 1532 1532 1532 1533 1533 1533 1534 1534 1535 1535 1536 1537 1538 1540 1541 1542 1543 1544 1545 1546 1547 1548 1550 1551 1552 1553 1554 1556 1557 1557 1557 1558 1559 1559 1560 1561 1562
1535 1534 1534 1535 1535 1535 1535 1535 1535 1536 1536 1536 1537 1537 1538 1539 1540 1541 1542 1543 1544 1544 1545 1546 1548 1549 1550 1551 1552 1553 1554 1555 1557 1557 1558 1558 1559 1559 1560 1560 1561 1562 1563
1537 1537 1537 1537 1538 1538 1538 1539 1539 1539 1539 1539 1540 1540 1541 1542 1543 1544 1545 1546 1546 1547 1548 1549 1550 1551 1552 1553 1554 1555 1556 1557 1559 1559 1559 1559 1560 1560 1561 1561 1562 1563 1564
1540 1540 1540 1540 1540 1541 1541 1542 1542 1542 1542 1543 1543 1544 1544 1545 1546 1547 1548 1549 1549 1550 1551 1551 1552 1553 1554 1555 1556 1557 1558 1559 1560 1560 1560 1560 1561 1561 1562 1562 1563 1563 1565
1542 1542 1543 1543 1543 1544 1544 1545 1545 1545 1546 1546 1546 1547 1548 1548 1549 1550 1550 1551 1552 1552 1553 1553 1554 1555 1556 1557 1558 1559 1559 1560 1561 1561 1561 1562 1562 1562 1563 1563 1563 1564 1565
1544 1545 1545 1546 1546 1547 1547 1547 1548 1548 1549 1549 1549 1550 1550 1551 1552 1552 1553 1554 1554 1554 1555 1555 1556 1557 1558 1559 1559 1560 1561 1561 1561 1561 1562 1562 1563 1563 1563 1564 1564 1565 1565
1546 1547 1547 1548 1549 1550 1551 1550 1551 1551 1551 1552 1552 1552 1553 1554 1555 1555 1556 1556 1556 1556 1556 1557 1558 1558 1559 1559 1560 1561 1561 1562 1562 1562 1562 1563 1564 1564 1564 1564 1565 1565 1566
1547 1548 1549 1549 1550 1552 1552 1553 1553 1554 1554 1554 1554 1555 1555 1556 1556 1557 1557 1557 1557 1557 1558 1558 1559 1559 1560 1561 1561 1562 1562 1562 1562 1562 1563 1563 1564 1564 1564 1564 1565 1565 1566
1548 1550 1550 1551 1552 1552 1553 1554 1555 1556 1556 1556 1556 1557 1557 1557 1558 1558 1558 1558 1558 1559 1559 1559 1560 1560 1561 1562 1562 1562 1563 1563 1562 1562 1563 1563 1564 1564 1564 1564 1564 1565 1565
1549 1550 1551 1552 1552 1553 1554 1555 1556 1557 1557 1557 1558 1558 1558 1558 1559 1559 1559 1559 1560 1560 1560 1560 1560 1561 1561 1562 1562 1562 1563 1563 1563 1563 1563 1563 1563 1564 1564 1564 1564 1564 1564
1550 1551 1552 1552 1553 1554 1555 1556 1557 1558 1558 1559 1559 1559 1559 1559 1559 1559 1559 1559 1560 1561 1560 1560 1561 1561 1561 1562 1562 1563 1563 1563 1563 1563 1562 1563 1563 1563 1563 1563 1563 1563 1563
1550 1551 1552 1553 1553 1554 1555 1556 1558 1558 1559 1559 1559 1559 1559 1559 1559 1559 1559 1559 1560 1560 1560 1560 1561 1561 1561 1562 1562 1562 1562 1562 1562 1562 1562 1562 1562 1562 1562 1562 1562 1562 1562
1549 1550 1552 1553 1554 1554 1556 1557 1558 1559 1559 1559 1560 1559 1559 1559 1559 1559 1559 1559 1560 1560 1560 1560 1560 1560 1560 1561 1561 1561 1561 1561 1562 1562 1562 1561 1561 1561 1561 1561 1561 1561 1561
1549 1550 1552 1553 1554 1555 1556 1556 1557 1558 1559 1560 1560 1560 1559 1559 1559 1559 1559 1559 1559 1559 1559 1560 1559 1559 1559 1560 1560 1560 1560 1560 1560 1561 1561 1561 1560 1560 1560 1560 1560 1560 1559
1549 1550 1551 1552 1553 1554 1555 1556 1557 1558 1558 1559 1559 1559 1559 1559 1558 1558 1558 1558 1558 1558 1559 1559 1558 1559 1559 1559 1559 1559 1559 1559 1559 1559 1559 1559 1559 1559 1558 1558 1558 1558 1558
1548 1549 1550 1551 1552 1554 1555 1555 1556 1557 1558 1558 1558 1558 1558 1558 1558 1558 1558 1557 1557 1557 1558 1558 1558 1557 1558 1558 1558 1558 1558 1558 1558 1558 1557 1558 1558 1558 1557 1557 1557 1556 1556
1546 1548 1549 1550 1551 1552 1553 1554 1556 1556 1557 1558 1558 1558 1557 1558 1557 1557 1556 1556 1557 1557 1556 1556 1556 1556 1556 1557 1557 1556 1557 1558 1557 1557 1556 1556 1556 1556 1556 1556 1556 1555 1555
1545 1546 1548 1549 1550 1551 1552 1553 1555 1555 1556 1557 1557 1557 1557 1557 1556 1556 1555 1555 1555 1555 1555 1555 1555 1555 1555 1555 1556 1556 1556 1556 1556 1556 1556 1556 1555 1555 1555 1555 1554 1554 1553
1543 1545 1546 1547 1549 1550 1551 1552 1553 1554 1555 1555 1556 1556 1555 1555 1555 1554 1554 1553 1553 1554 1554 1553 1553 1553 1553 1553 1554 1554 1554 1554 1554 1554 1555 1554 1554 1554 1554 1554 1554 1553 1552
1541 1543 1544 1546 1547 1548 1549 1550 1551 1553 1554 1554 1554 1554 1554 1554 1554 1553 1552 1552 1552 1552 1552 1552 1552 1551 1551 1552 1552 1552 1552 1552 1552 1552 1552 1553 1553 1553 1553 1553 1552 1551 1550
1540 1542 1543 1544 1545 1546 1547 1548 1549 1551 1552 1552 1553 1553 1552 1552 1552 1552 1552 1551 1550 1550 1550 1550 1550 1550 1550 1550 1550 1550 1550 1550 1550 1550 1550 1550 1551 1552 1552 1551 1550 1550 1549